TimeMDT,TemperatureF,Dew PointF,Humidity,Sea Level PressureIn,VisibilityMPH,Wind Direction,Wind SpeedMPH,Gust SpeedMPH,PrecipitationIn,Events,Conditions,WindDirDegrees,DateUTC
12:15 AM,53.6,50.0,88,30.39,10.0,North,9.2,-,N/A,,Clear,360,2013-07-01 06:15:00
12:35 AM,53.6,50.0,88,30.39,10.0,North,8.1,-,N/A,,Clear,350,2013-07-01 06:35:00
12:55 AM,53.6,50.0,88,30.39,10.0,Calm,Calm,-,N/A,,Clear,0,2013-07-01 06:55:00
1:15 AM,53.6,48.2,82,30.39,10.0,WNW,4.6,-,N/A,,Clear,300,2013-07-01 07:15:00
1:35 AM,51.8,48.2,88,30.40,10.0,Calm,Calm,-,N/A,,Clear,0,2013-07-01 07:35:00
1:55 AM,51.8,48.2,88,30.39,10.0,NNW,3.5,-,N/A,,Clear,340,2013-07-01 07:55:00
2:15 AM,50.0,46.4,87,30.39,10.0,North,3.5,-,N/A,,Clear,10,2013-07-01 08:15:00
2:35 AM,51.8,48.2,88,30.39,10.0,Calm,Calm,-,N/A,,Clear,0,2013-07-01 08:35:00
2:55 AM,51.8,46.4,82,30.39,10.0,Calm,Calm,-,N/A,,Clear,0,2013-07-01 08:55:00
3:15 AM,50.0,44.6,82,30.39,10.0,NE,3.5,-,N/A,,Clear,40,2013-07-01 09:15:00
3:35 AM,51.8,46.4,82,30.39,10.0,Calm,Calm,-,N/A,,Clear,0,2013-07-01 09:35:00
3:55 AM,48.2,44.6,87,30.39,10.0,Calm,Calm,-,N/A,,Clear,0,2013-07-01 09:55:00
4:15 AM,48.2,44.6,87,30.39,10.0,Calm,Calm,-,N/A,,Clear,0,2013-07-01 10:15:00
4:35 AM,48.2,42.8,82,30.40,10.0,Calm,Calm,-,N/A,,Clear,0,2013-07-01 10:35:00
4:55 AM,48.2,44.6,87,30.40,10.0,Calm,Calm,-,N/A,,Clear,0,2013-07-01 10:55:00
5:15 AM,50.0,46.4,87,30.40,10.0,Calm,Calm,-,N/A,,Clear,0,2013-07-01 11:15:00
5:35 AM,48.2,44.6,87,30.40,10.0,Calm,Calm,-,N/A,,Clear,0,2013-07-01 11:35:00
5:55 AM,48.2,44.6,87,30.41,9.0,Calm,Calm,-,N/A,,Clear,0,2013-07-01 11:55:00
6:15 AM,48.2,44.6,87,30.42,4.0,Calm,Calm,-,N/A,,Clear,0,2013-07-01 12:15:00
6:35 AM,48.2,44.6,87,30.43,10.0,Calm,Calm,-,N/A,,Clear,0,2013-07-01 12:35:00
6:55 AM,51.8,48.2,88,30.43,10.0,Calm,Calm,-,0.01,,Clear,0,2013-07-01 12:55:00
7:15 AM,53.6,48.2,82,30.44,10.0,North,3.5,-,N/A,,Clear,360,2013-07-01 13:15:00
7:35 AM,53.6,48.2,82,30.44,10.0,Calm,Calm,-,N/A,,Clear,0,2013-07-01 13:35:00
7:55 AM,55.4,48.2,77,30.44,10.0,Calm,Calm,-,N/A,,Clear,0,2013-07-01 13:55:00
8:15 AM,55.4,48.2,77,30.45,10.0,Calm,Calm,-,N/A,,Clear,0,2013-07-01 14:15:00
8:35 AM,57.2,48.2,72,30.44,10.0,Calm,Calm,-,N/A,,Clear,0,2013-07-01 14:35:00
8:55 AM,57.2,48.2,72,30.43,10.0,WSW,3.5,-,N/A,,Clear,250,2013-07-01 14:55:00
9:15 AM,59.0,50.0,72,30.43,10.0,Calm,Calm,-,N/A,,Clear,0,2013-07-01 15:15:00
9:35 AM,60.8,50.0,68,30.42,10.0,Calm,Calm,-,N/A,,Clear,0,2013-07-01 15:35:00
9:55 AM,62.6,50.0,63,30.42,10.0,Calm,Calm,-,N/A,,Clear,0,2013-07-01 15:55:00
10:15 AM,64.4,51.8,64,30.41,10.0,WSW,4.6,-,N/A,,Clear,240,2013-07-01 16:15:00
10:35 AM,64.4,50.0,59,30.41,10.0,Calm,Calm,-,N/A,,Clear,0,2013-07-01 16:35:00
10:55 AM,66.2,51.8,60,30.40,10.0,WNW,5.8,-,N/A,,Clear,290,2013-07-01 16:55:00
11:15 AM,66.2,50.0,56,30.40,10.0,Calm,Calm,-,N/A,,Clear,0,2013-07-01 17:15:00
11:35 AM,69.8,48.2,46,30.39,10.0,Calm,Calm,-,N/A,,Clear,0,2013-07-01 17:35:00
11:55 AM,69.8,50.0,49,30.38,10.0,Calm,Calm,-,N/A,,Clear,0,2013-07-01 17:55:00
12:15 PM,71.6,48.2,43,30.37,10.0,Calm,Calm,-,N/A,,Clear,0,2013-07-01 18:15:00
12:35 PM,73.4,48.2,41,30.36,10.0,NNW,6.9,-,N/A,,Clear,330,2013-07-01 18:35:00
12:55 PM,75.2,46.4,36,30.35,10.0,NW,10.4,16.1,N/A,,Clear,310,2013-07-01 18:55:00
1:15 PM,75.2,48.2,38,30.35,10.0,NW,5.8,-,N/A,,Partly Cloudy,310,2013-07-01 19:15:00
1:35 PM,77.0,46.4,34,30.34,10.0,North,9.2,-,N/A,,Scattered Clouds,350,2013-07-01 19:35:00
1:55 PM,75.2,48.2,38,30.34,10.0,SE,23.0,32.2,N/A,,Partly Cloudy,130,2013-07-01 19:55:00
2:15 PM,75.2,46.4,36,30.33,10.0,SE,15.0,25.3,N/A,,Mostly Cloudy,130,2013-07-01 20:15:00
2:35 PM,77.0,48.2,36,30.33,10.0,ESE,23.0,-,N/A,,Partly Cloudy,110,2013-07-01 20:35:00
2:55 PM,77.0,46.4,34,30.33,10.0,ESE,16.1,20.7,N/A,,Partly Cloudy,120,2013-07-01 20:55:00
3:15 PM,78.8,48.2,34,30.32,10.0,ESE,16.1,20.7,N/A,,Clear,120,2013-07-01 21:15:00
3:35 PM,77.0,46.4,34,30.32,10.0,SE,23.0,32.2,N/A,,Clear,130,2013-07-01 21:35:00
3:55 PM,75.2,46.4,36,30.31,10.0,SE,20.7,28.8,N/A,,Clear,130,2013-07-01 21:55:00
4:15 PM,75.2,46.4,36,30.30,10.0,SSE,19.6,26.5,N/A,,Mostly Cloudy,160,2013-07-01 22:15:00
4:35 PM,78.8,46.4,32,30.28,10.0,ESE,16.1,27.6,N/A,,Partly Cloudy,110,2013-07-01 22:35:00
4:55 PM,80.6,42.8,26,30.29,10.0,ESE,20.7,24.2,N/A,,Clear,110,2013-07-01 22:55:00
5:15 PM,78.8,44.6,30,30.28,10.0,ESE,20.7,26.5,N/A,,Clear,120,2013-07-01 23:15:00
5:35 PM,78.8,44.6,30,30.28,10.0,SE,21.9,28.8,N/A,,Clear,130,2013-07-01 23:35:00
5:55 PM,77.0,46.4,34,30.29,10.0,ESE,23.0,27.6,N/A,,Clear,110,2013-07-01 23:55:00
6:15 PM,75.2,46.4,36,30.29,10.0,ESE,20.7,32.2,N/A,,Clear,120,2013-07-02 00:15:00
6:35 PM,75.2,46.4,36,30.29,10.0,ESE,20.7,28.8,N/A,,Mostly Cloudy,110,2013-07-02 00:35:00
6:55 PM,71.6,44.6,38,30.31,10.0,ESE,25.3,28.8,N/A,,Overcast,110,2013-07-02 00:55:00
7:15 PM,69.8,44.6,40,30.30,10.0,SE,20.7,26.5,N/A,,Mostly Cloudy,130,2013-07-02 01:15:00
7:35 PM,69.8,44.6,40,30.32,10.0,SE,10.4,-,N/A,,Scattered Clouds,140,2013-07-02 01:35:00
7:55 PM,69.8,44.6,40,30.32,10.0,SE,15.0,-,N/A,,Scattered Clouds,140,2013-07-02 01:55:00
8:15 PM,68.0,44.6,43,30.33,10.0,SE,15.0,-,N/A,,Partly Cloudy,130,2013-07-02 02:15:00
8:35 PM,66.2,44.6,46,30.34,10.0,SE,13.8,24.2,N/A,,Clear,140,2013-07-02 02:35:00
8:55 PM,66.2,44.6,46,30.34,10.0,SE,17.3,25.3,N/A,,Clear,130,2013-07-02 02:55:00
9:15 PM,66.2,44.6,46,30.35,10.0,ESE,13.8,21.9,N/A,,Clear,110,2013-07-02 03:15:00
9:35 PM,64.4,46.4,52,30.38,10.0,ESE,13.8,-,N/A,,Mostly Cloudy,120,2013-07-02 03:35:00
9:55 PM,64.4,48.2,56,30.42,10.0,ENE,10.4,-,N/A,,Overcast,60,2013-07-02 03:55:00
10:15 PM,57.2,50.0,77,30.43,10.0,North,8.1,-,0.02,,Overcast,10,2013-07-02 04:15:00
10:35 PM,59.0,50.0,72,30.43,10.0,North,3.5,-,0.02,,Overcast,10,2013-07-02 04:35:00
10:55 PM,57.2,51.8,82,30.42,10.0,ESE,4.6,-,0.02,,Scattered Clouds,110,2013-07-02 04:55:00
11:15 PM,57.2,51.8,82,30.42,10.0,ESE,6.9,-,N/A,,Clear,120,2013-07-02 05:15:00
11:35 PM,55.4,50.0,82,30.43,10.0,Calm,Calm,-,N/A,,Clear,0,2013-07-02 05:35:00
11:55 PM,57.2,48.2,72,30.43,10.0,Calm,Calm,-,N/A,,Clear,0,2013-07-02 05:55:00